星链-33752 (STARLINK-33752)

导读

STARLINK-33752是美国星链(Starlink)星座的一颗卫星,于2025年4月14日发射入轨。作为SpaceX打造的低轨宽带互联网星座组成部分,它承担着为全球范围提供高速卫星互联网接入的任务,尤其服务偏远地区、移动载体等场景,进一步扩充了星链星座的全球覆盖能力与服务容量。

Basic Information
目录编号:
63580
目录名称:
STARLINK-33752
国际标识:
2025-076M
轨道中心:
EARTH
卫星名称:
星链-33752
卫星全名:
星链-33752 (STARLINK-33752)
卫星状态:
在轨 (已飞行509 天)
发射日期:
2025-04-14 UTC
国别 :
美国 (US)
星等 :
--
Orbit Information
数据来源 国际轨道数据
星历时间: 2026-09-05T01:56:34+0800
17小时前
查看轨道信息
半长轴: 6861.177km
偏心率: 0.0001557
轨道倾角: 43.001°
近地点辐角 275.683°
升交点赤经 30.585°
平近点角 84.385°
近地点: 481.971km
远地点: 484.109km
周期: 94.267分钟
每日圈数: 15.275831
Detailed Information
固有亮度:
5
最大亮度:
2.5
卫星平台:
Starlink V1.0
覆盖范围:
全球
运营商:
太空探索技术公司
运营商所在国:
美国
制造商(研发单位):
太空探索技术公司
制造商所在国:
美国
使用方式:
暂无
Satellite Introduction
Starlink 计划是 SpaceX 推出的全球卫星互联网项目,通过发射低轨道卫星,为全球尤其是偏远地区提供高速、低延迟的互联网服务。自 2019 年起,Starlink 已部署数千颗卫星,旨在缩小全球数字鸿沟,推动互联网普及。该项目还为军事、航空等行业提供通信支持,带来广泛经济效益。
2D Orbit Map
3D Orbit Map
Orbit Altitude Analysis Chart
Orbit Inclination Analysis Chart
Orbit Comprehensive Analysis Chart
View Comprehensive Chart
Conjunction Data List
Event ID Objects TCA Miss Dist (km) Collision Risk Probability Collision Risk Index (CRI) Action
CDM_260906-023706-358006-398821
OBJECT G (63988)
2026-09-06T
02:37:33+0000
1.186 km
极远距离
1.085973E-5 中风险 0.56
CDM_260903-032405-705106-358021
2026-09-03T
03:24:10+0000
1.425 km
极远距离
6.092206E-6 低风险 0.51
CDM_260903-045805-705106-358021
2026-09-03T
04:58:20+0000
1.811 km
极远距离
2.911694E-6 低风险 0.44
CDM_260902-150204-282706-358022
OBJECT C (42827)
2026-09-02T
15:02:03+0000
2.471 km
极远距离
1.177321E-6 低风险 0.36